Location: Moscow
(55.7500°N, 37.5830°E)
Time: 01:54:25
(UTC+03:00)

Vanguard 3 - Pass Details

Date: 30 November 2021
Orbit: 508 x 3260 km, 33.3° (Epoch: 17 January)

Event Time Altitude Azimuth Distance (km) Brightness Sun altitude
Rises 03:39:14 0° 196° (SSW) 7,201 - -39.8°
Exits shadow 03:41:20 - 193° (SSW) 6,899 11.6 -39.5°
Reaches altitude 10° 03:46:55 10° 180° (S) 6,158 11.4 -38.7°
Maximum altitude 03:56:50 17° 149° (SSE) 5,267 11.3 -37.4°
Drops below altitude 10° 04:05:29 10° 117° (ESE) 5,306 11.7 -36.3°
Sets 04:11:08 0° 99° (E) 5,837 12.4 -35.5°
